CZ-4 DEB, 26151

Orbit data source: Space-Track

CZ-4 DEB, 26151 is space debris in SSO originally from a launch on Thu, 14 Oct 1999 UTC launched from the Taiyaun Space Center, China (TSC). Debris objects in space refer to the collection of defunct objects orbiting the Earth. Examples of debris include non-operational satellites, rocket bodies, and fragments generated from explosions, collisions, or faulty payload assembly.

Loading next visibility...
Identifier
26151, 1999-057AM
Orbit
SSO
Country
Flag of CNCN / PRC
Related business
Manufacturer
Unknown
Mission
Spacecraft
Bus & Motor
Unknown
Mass
Unknown
Launch date (UTC)
1999-10-14 (26 years ago)
Launch vehicle
Unknown
Launch site
Taiyaun Space Center, China (TSC)
Object type
Payload
Rocket body
Debris
Shape & HBR
Unknown
Radar Cross Section
Medium (>0.1 m² and <1 m²)

Expand to show TLE details & history
Last TLE update: 15 hours ago

TLE from 15 hours ago
0 CZ-4 DEB
1 26151U 99057AM  25259.36190623  .00000965  00000-0  94678-3 0  9995
2 26151  99.4226 215.5215 0613076  97.2262  50.7000 13.18744629222745
Epoch: 2025-09-16T08:41Z
TLE epoch observation values (Epoch: 2025-09-16T08:41:08.698Z)
Latitude
26.02263°
Longitude
-85.69528°
Altitude
916.678 km
Speed
7.53 km/s
True Right ascension
02h 40m 34s
True Declination
25° 53' 25"
Sunlit
Object was in full shadow at epoch
Visualization orbit readout
Latitude
Unknown
Longitude
Unknown
Altitude
Unknown
Speed
Unknown
Apparent Right ascension
Unknown
Apparent Declination
Unknown
Sunlit
N/A
Visualization observer readout
Local Sidereal Time
16:44:31
Azimuth
Unknown
Elevation
Unknown
Doppler factor
Unknown
Orbital elements
Apogee altitude
1,650.623 km
Perigee altitude
723.043 km
Semi-major axis
7,564.97 km
Eccentricity
0.06131
Inclination
99.4226°
RAAN
215.5215°
Arg. of periapsis
97.2262°
True anomaly
56.40373°
Mean anomaly
50.7°
Eccentric anomaly
53.52458°
Mean motion
3.29862 °/min
Orbital period
109.14 mins
BSTAR
0.00094678
Loading maneuver chart data...
Computing Atmospheric mass density...
Loading historical data...
Loading historical data...
Loading historical data...
Loading historical data...
Loading historical data...
Loading historical data...
Loading historical data...

Documentation

Showing up to 5 results
|